星链-5690 (STARLINK-5690 )

导读

STARLINK-5690是美国于2023年2月2日发射的星链卫星,隶属于SpaceX的星链互联网星座项目。星链系统旨在为全球提供高速低延迟宽带互联网服务,该卫星入轨后,进一步扩充了星链星座的规模,推进了全球卫星互联网覆盖网络的部署进程。

基本信息
目录编号:
55480
目录名称:
STARLINK-5690
国际标识:
2023-015AH
轨道中心:
EARTH
卫星名称:
星链-5690
卫星全名:
星链-5690 (STARLINK-5690 )
卫星状态:
在轨 (已飞行1229 天)
发射日期:
2023-02-02 UTC
国别 :
美国 (US)
星等 :
--
轨道信息
数据来源 国际轨道数据 AOE轨道数据
星历时间 2026-06-14T13:55:25+0800
20小时前
查看轨道信息
2026-06-14T02:00:00+0800
1天前
查看轨道信息
半长轴 6861.202km 6861.178km
偏心率 0.0001069 0.0001292
轨道倾角 43.006° 42.999°
近地点辐角 259.948° 257.953°
升交点赤经 154.245° 157.052°
平近点角 100.125° 246.806°
近地点 482.331km 482.154km
远地点 483.799km 483.928km
周期 94.267分钟 94.267分钟
每日圈数 15.275749 15.275828
详细信息
固有亮度:
5
最大亮度:
2.5
卫星平台:
Starlink v1.5
覆盖范围:
全球
运营商:
太空探索技术公司
运营商所在国:
美国
制造商(研发单位):
太空探索技术公司
制造商所在国:
美国
使用方式:
暂无
卫星简介
星链(Starlink)计划是由太空探索技术公司(SpaceX)提出的一个巨型低轨卫星互联网星座项目,计划在2019年至2024年间在太空搭建由约1.2万颗卫星组成的“星链”网络,其中1584颗将部署在地球上空550千米处的近地轨道,并从2020年开始工作。该卫星仍在工作。
2D轨道图
3D轨道图
轨道高度分析图
轨道倾角分析图
轨道综合分析图
查看轨道综合分析图